星链-35394(STARLINK-35394)

导读

STARLINK-35394是美国于2025年10月16日发射的星链卫星,归属SpaceX公司的星链互联网星座项目。星链计划旨在构建全球卫星互联网星座,为全球偏远地区、海洋航空等场景提供高速低延迟宽带网络服务。该卫星的发射进一步扩充了星链星座规模,助力全球卫星互联网服务覆盖与性能提升。

基本信息
目录编号:
66023
目录名称:
STARLINK-35394
国际标识:
2025-232U
轨道中心:
EARTH
卫星名称:
星链-35394
卫星全名:
星链-35394(STARLINK-35394)
卫星状态:
在轨 (已飞行323 天)
发射日期:
2025-10-16 UTC
国别 :
美国 (US)
星等 :
--
轨道信息
数据来源 国际轨道数据
星历时间: 2026-09-04T03:41:50+0800
13小时前
查看轨道信息
半长轴: 6840.839km
偏心率: 0.0001102
轨道倾角: 53.161°
近地点辐角 87.577°
升交点赤经 355.415°
平近点角 272.536°
近地点: 461.948km
远地点: 463.456km
周期: 93.848分钟
每日圈数: 15.344005
详细信息
固有亮度:
5
最大亮度:
2.5
卫星平台:
Starlink V1.0
覆盖范围:
全球
运营商:
太空探索技术公司
运营商所在国:
美国
制造商(研发单位):
太空探索技术公司
制造商所在国:
美国
使用方式:
暂无
卫星简介
Starlink 计划是 SpaceX 推出的全球卫星互联网项目,通过发射低轨道卫星,为全球尤其是偏远地区提供高速、低延迟的互联网服务。自 2019 年起,Starlink 已部署数千颗卫星,旨在缩小全球数字鸿沟,推动互联网普及。该项目还为军事、航空等行业提供通信支持,带来广泛经济效益。
2D轨道图
3D轨道图
轨道高度分析图
轨道倾角分析图
轨道综合分析图
查看轨道综合分析图
交会数据列表
事件ID 空间交会对象 最接近时刻(TCA) 交会距离 交会风险概率(CRP) 交会风险指数(CRI) 操作
CDM_260906-103505-355106-602321
2026-09-06T
10:35:25+0000
0.257 km
中距离
2.864648E-4 高风险 0.84
CDM_260827-183106-522506-602321
2026-08-27T
18:31:56+0000
0.512 km
远距离
9.886196E-5 中风险 0.75
CDM_260905-133705-926306-602321
2026-09-05T
13:37:06+0000
0.802 km
远距离
3.536946E-5 中风险 0.66
CDM_260906-064005-355106-602321
2026-09-06T
06:40:56+0000
0.911 km
远距离
9.951886E-6 低风险 0.55
CDM_260905-001905-926306-602321
2026-09-05T
00:19:53+0000
1.297 km
极远距离
6.869094E-6 低风险 0.52
CDM_260905-015305-926306-602321
2026-09-05T
01:53:41+0000
1.314 km
极远距离
6.570955E-6 低风险 0.51
CDM_260904-153305-853506-602321
2026-09-04T
15:33:58+0000
1.430 km
极远距离
3.567555E-6 低风险 0.46
CDM_260906-050705-355106-602321
2026-09-06T
05:07:08+0000
1.341 km
极远距离
2.715565E-6 低风险 0.44
CDM_260904-170705-853506-602321
2026-09-04T
17:07:45+0000
1.660 km
极远距离
2.26737E-6 低风险 0.42
CDM_260905-120305-926306-602321
2026-09-05T
12:03:19+0000
2.039 km
极远距离
1.788299E-6 低风险 0.4